User: anonymous   Login
Location: Unspecified
(0.0000°N, 0.0000°E)
Time: 08:00:15
(UTC+00:00)
Language:

BEESAT - Orbit

View from above orbital plane
View from above orbital plane
View from above satellite
View from above satellite

Ground track
Ground track

The orbit data is extracted from the following two-line orbital elements,

1 35933U 09051C   21260.36872425  .00000144  00000-0  43322-4 0  9993
2 35933  98.5923 105.0401 0005781 167.2349 192.8995 14.56630479636491
Epoch (UTC): 17 September 2021 08:50:57
Eccentricity: 0.0005781
inclination: 98.5923°
perigee height: 700 km
apogee height: 708 km
right ascension of ascending node: 105.0401°
argument of perigee: 167.2349°
revolutions per day: 14.56630479
mean anomaly at epoch: 192.8995°
orbit number at epoch: 63649

The dashed part of the orbit path shows where the satellite is in the earth's shadow,  

DLR